Holdrege, NE

4:46 AM CST on December 08, 2019 (GMT -0600)
Brewster

Weather History for KHDE - November, 2019

Change the Weather History Date:

Tuesday, November 19, 2019

  Actual Average Record
Temperature  
Mean Temperature 45 °F -  
Max Temperature 62 °F 47 °F 78 °F (2007)
Min Temperature 28 °F 24 °F 6 °F (1985)
Degree Days  
Heating Degree Days 20    
Moisture  
Dew Point 30 °F    
Average Humidity 59    
Maximum Humidity 84    
Minimum Humidity 33    
Precipitation  
Precipitation 0.00 in - - ()
Sea Level Pressure  
Sea Level Pressure 29.85 in    
Wind  
Wind Speed 6 mph ()    
Max Wind Speed 15 mph    
Max Gust Speed 22 mph    
Visibility 10.0 miles    
Events      
Averages and records for this station are not official NWS values.
T = Trace of Precipitation, MM = Missing Value Source: Averaged Metar Reports

Daily Weather History Graph

Daily Weather History Graph

Search for Another Location

Airport or City:

Astronomy

Nov. 19, 2019 Rise Set
Actual Time 7:27 AM CST 5:17 PM CST
Civil Twilight 6:58 AM CST 5:46 PM CST
Nautical Twilight 6:25 AM CST 6:19 PM CST
Astronomical Twilight 5:52 AM CST 6:52 PM CST
Moon No Moon Rise 1:39 PM CST (11/19)
Length of Visible Light 10h 48m
Length of Day
9h 49m
Waning Gibbous, 51% of the Moon is Illuminated
Nov 19
Waning Gibbous
Nov 19
Last Quarter
Nov 26
New
Dec 4
First Quarter
Dec 11
Full

Hourly Weather History & Observations

Time (CST) Temp. Windchill Dew Point Humidity Pressure Visibility Wind Dir Wind Speed Gust Speed Precip Events Conditions
12:15 AM 37.2 °F 31.9 °F 26.4 °F 65% 29.90 in 10.0 mi WNW 6.9 mph - N/A   Clear
12:35 AM 36.7 °F 31.2 °F 26.1 °F 65% 29.89 in 10.0 mi NW 6.9 mph - N/A   Clear
12:55 AM 33.6 °F 28.4 °F 25.3 °F 72% 29.90 in 10.0 mi WNW 5.8 mph - N/A   Clear
1:15 AM 36.0 °F 30.3 °F 26.8 °F 69% 29.91 in 10.0 mi West 6.9 mph - N/A   Clear
1:35 AM 37.4 °F 33.8 °F 26.8 °F 66% 29.90 in 10.0 mi WNW 4.6 mph - N/A   Clear
1:55 AM 36.1 °F 32.3 °F 27.0 °F 69% 29.90 in 10.0 mi West 4.6 mph - N/A   Clear
2:15 AM 36.9 °F 33.1 °F 26.6 °F 66% 29.91 in 10.0 mi West 4.6 mph - N/A   Clear
2:35 AM 34.3 °F 31.4 °F 26.2 °F 72% 29.91 in 10.0 mi WSW 3.5 mph - N/A   Clear
2:55 AM 34.3 °F 30.2 °F 26.1 °F 72% 29.90 in 10.0 mi West 4.6 mph - N/A   Clear
3:15 AM 34.7 °F 30.6 °F 26.6 °F 72% 29.90 in 10.0 mi West 4.6 mph - N/A   Clear
3:35 AM 33.1 °F 28.7 °F 25.7 °F 74% 29.89 in 10.0 mi West 4.6 mph - N/A   Clear
3:55 AM 31.8 °F 26.2 °F 24.8 °F 75% 29.89 in 10.0 mi West 5.8 mph - N/A   Clear
4:15 AM 32.4 °F 29.1 °F 25.5 °F 76% 29.89 in 10.0 mi WNW 3.5 mph - N/A   Clear
4:35 AM 32.2 °F 28.9 °F 25.5 °F 76% 29.89 in 10.0 mi West 3.5 mph - N/A   Clear
4:55 AM 31.6 °F 27.0 °F 25.3 °F 78% 29.90 in 10.0 mi West 4.6 mph - N/A   Clear
5:15 AM 32.9 °F 29.8 °F 26.2 °F 76% 29.89 in 10.0 mi West 3.5 mph - N/A   Clear
5:35 AM 32.9 °F 27.5 °F 26.2 °F 76% 29.89 in 10.0 mi West 5.8 mph - N/A   Clear
5:55 AM 32.0 °F - 25.7 °F 78% 29.90 in 10.0 mi Calm Calm - N/A   Clear
6:15 AM 30.7 °F - 25.2 °F 80% 29.90 in 10.0 mi Calm Calm - N/A   Clear
6:35 AM 30.7 °F 27.3 °F 25.3 °F 80% 29.91 in 10.0 mi West 3.5 mph - N/A   Clear
6:55 AM 28.6 °F - 23.9 °F 83% 29.90 in 10.0 mi Calm Calm - N/A   Clear
7:15 AM 30.0 °F - 25.2 °F 82% 29.91 in 10.0 mi Calm Calm - N/A   Clear
7:35 AM 28.0 °F - 23.7 °F 84% 29.91 in 10.0 mi Calm Calm - N/A   Clear
7:55 AM 28.9 °F - 24.3 °F 83% 29.92 in 10.0 mi Calm Calm - N/A   Clear
8:15 AM 30.7 °F 27.3 °F 25.9 °F 82% 29.92 in 10.0 mi West 3.5 mph - N/A   Clear
8:35 AM 33.6 °F - 28.2 °F 81% 29.92 in 10.0 mi Calm Calm - N/A   Clear
8:55 AM 38.3 °F - 30.2 °F 73% 29.93 in 10.0 mi Calm Calm - N/A   Clear
9:15 AM 41.5 °F - 31.3 °F 67% 29.92 in 10.0 mi Calm Calm - N/A   Clear
9:35 AM 45.5 °F - 32.0 °F 59% 29.93 in 10.0 mi Calm Calm - N/A   Clear
9:55 AM 48.6 °F - 32.4 °F 54% 29.92 in 10.0 mi Calm Calm - N/A   Clear
10:15 AM 51.4 °F - 32.0 °F 47% 29.92 in 10.0 mi Calm Calm - N/A   Clear
10:35 AM 53.6 °F - 32.5 °F 45% 29.91 in 10.0 mi SSW 4.6 mph - N/A   Clear
10:55 AM 55.6 °F - 32.2 °F 41% 29.91 in 10.0 mi South 5.8 mph - N/A   Clear
11:15 AM 56.7 °F - 32.9 °F 41% 29.90 in 10.0 mi South 9.2 mph - N/A   Clear
11:35 AM 58.3 °F - 33.3 °F 39% 29.90 in 10.0 mi South 9.2 mph - N/A   Scattered Clouds
11:55 AM 59.4 °F - 33.8 °F 38% 29.88 in 10.0 mi South 11.5 mph - N/A   Mostly Cloudy
12:15 PM 59.2 °F - 33.4 °F 38% 29.87 in 10.0 mi South 11.5 mph - N/A   Scattered Clouds
12:35 PM 59.9 °F - 33.1 °F 36% 29.86 in 10.0 mi South 12.7 mph 17.3 mph N/A   Clear
12:55 PM 60.3 °F - 32.9 °F 36% 29.85 in 10.0 mi South 11.5 mph - N/A   Clear
1:15 PM 58.6 °F - 32.4 °F 37% 29.84 in 10.0 mi SSE 9.2 mph - N/A   Clear
1:35 PM 59.2 °F - 32.5 °F 37% 29.83 in 10.0 mi SSE 12.7 mph 17.3 mph N/A   Clear
1:55 PM 60.8 °F - 32.5 °F 35% 29.82 in 10.0 mi South 15.0 mph 21.9 mph N/A   Clear
2:15 PM 61.0 °F - 32.7 °F 35% 29.81 in 10.0 mi SSE 11.5 mph 18.4 mph N/A   Clear
2:35 PM 61.9 °F - 32.4 °F 33% 29.79 in 10.0 mi SSE 11.5 mph - N/A   Clear
2:55 PM 62.1 °F - 32.5 °F 33% 29.79 in 10.0 mi SSE 13.8 mph 19.6 mph N/A   Clear
3:15 PM 61.2 °F - 32.5 °F 34% 29.79 in 10.0 mi South 10.4 mph 16.1 mph N/A   Clear
3:35 PM 59.9 °F - 32.5 °F 36% 29.80 in 10.0 mi South 10.4 mph - N/A   Clear
3:55 PM 59.0 °F - 32.7 °F 37% 29.80 in 10.0 mi SSE 10.4 mph - N/A   Clear
4:15 PM 58.1 °F - 32.9 °F 39% 29.80 in 10.0 mi SSE 9.2 mph - N/A   Clear
4:35 PM 57.7 °F - 33.3 °F 40% 29.80 in 10.0 mi SE 9.2 mph - N/A   Clear
4:55 PM 56.5 °F - 33.1 °F 41% 29.79 in 10.0 mi SE 10.4 mph - N/A   Clear
5:15 PM 54.0 °F - 33.1 °F 45% 29.79 in 10.0 mi SE 9.2 mph - N/A   Clear
5:35 PM 50.0 °F - 32.0 °F 50% 29.79 in 10.0 mi SE 9.2 mph - N/A   Clear
5:55 PM 48.0 °F - 32.2 °F 54% 29.79 in 10.0 mi SE 10.4 mph - N/A   Clear
6:15 PM 48.4 °F - 32.0 °F 53% 29.78 in 10.0 mi SE 11.5 mph - N/A   Clear
6:35 PM 47.7 °F - 32.4 °F 55% 29.79 in 10.0 mi ESE 10.4 mph - N/A   Clear
6:55 PM 47.3 °F - 32.4 °F 56% 29.79 in 10.0 mi ESE 10.4 mph - N/A   Clear
7:15 PM 46.4 °F 41.5 °F 32.2 °F 58% 29.79 in 10.0 mi ESE 10.4 mph - N/A   Clear
7:35 PM 45.5 °F 40.3 °F 32.0 °F 59% 29.79 in 10.0 mi SE 10.4 mph - N/A   Clear
7:55 PM 45.5 °F 40.3 °F 32.0 °F 59% 29.79 in 10.0 mi SE 10.4 mph - N/A   Clear
8:15 PM 45.0 °F 40.1 °F 32.0 °F 60% 29.79 in 10.0 mi SE 9.2 mph - N/A   Clear
8:35 PM 46.4 °F 41.5 °F 32.4 °F 58% 29.80 in 10.0 mi SE 10.4 mph - N/A   Clear
8:55 PM 47.1 °F - 32.7 °F 57% 29.80 in 10.0 mi SE 10.4 mph - N/A   Clear
9:15 PM 46.4 °F 41.5 °F 32.9 °F 59% 29.79 in 10.0 mi SE 10.4 mph - N/A   Clear
9:35 PM 46.8 °F - 32.9 °F 59% 29.79 in 10.0 mi SE 10.4 mph - N/A   Clear
9:55 PM 47.3 °F - 32.9 °F 57% 29.79 in 10.0 mi SE 10.4 mph - N/A   Clear
10:15 PM 45.5 °F 40.8 °F 32.7 °F 61% 29.78 in 10.0 mi SE 9.2 mph - N/A   Clear
10:35 PM 44.2 °F 39.2 °F 32.4 °F 63% 29.77 in 10.0 mi ESE 9.2 mph - N/A   Clear
10:55 PM 43.7 °F 37.3 °F 32.0 °F 63% 29.76 in 10.0 mi ESE 12.7 mph - N/A   Clear
11:15 PM 42.6 °F 36.3 °F 31.8 °F 66% 29.76 in 10.0 mi SE 11.5 mph - N/A   Clear
11:35 PM 41.7 °F 35.6 °F 31.6 °F 67% 29.75 in 10.0 mi SE 10.4 mph - N/A   Clear
11:55 PM 41.0 °F 34.7 °F 31.5 °F 69% 29.75 in 10.0 mi SE 10.4 mph - N/A   Clear